This demonstration page uses our WeatherBlox Daily Observations layout. Learn more.

Left ArrowRight Arrow

41.12389, -100.76542

Hourly Observations for March 14, 2019

Temp ( °F °C ) Dew Point ( °F °C ) Humidity (%) Winds ( mph kmh ) Pressure ( in mb ) Visibility ( mi km ) Precip ( " mm )
12:53 am 00:53 Cloudy 32 0 25 -3.9 75 75 N 37 59 29.31 993 10 16 0.00 0.00
1:53 am 01:53 Cloudy with Light Wintry Mix 31 -0.6 25 -3.9 79 79 N 44 70 29.34 994 10 16 0.00 0.03
2:53 am 02:53 Cloudy 31 -0.6 25 -3.9 79 79 N 29 46 29.42 996 10 16 0.00 0.03
3:53 am 03:53 Cloudy 32 0 24 -4.4 73 73 N 35 56 29.46 998 10 16 0.00 0.00
4:53 am 04:53 Cloudy 32 0 24 -4.4 73 73 N 33 54 29.51 999 10 16 0.00 0.00
5:53 am 05:53 Cloudy 33 0.6 25 -3.9 72 72 N 33 54 29.56 1001 10 16 0.00 0.00
6:53 am 06:53 Cloudy 33 0.6 25 -3.9 72 72 N 28 44 29.64 1004 10 16 0.00 0.00
7:53 am 07:53 Cloudy with Light Wintry Mix 33 0.6 25 -3.9 72 72 N 33 54 29.70 1006 10 16 0.00 0.03
8:53 am 08:53 Cloudy with Light Wintry Mix 32 0 25 -3.9 75 75 N 36 57 29.74 1007 10 16 0.00 0.03
9:53 am 09:53 Windy with Snow Likely 32 0 25 -3.9 75 75 N 35 56 29.79 1009 9 14 0.00 0.03
10:53 am 10:53 Cloudy with Light Wintry Mix 33 0.6 24 -4.4 70 70 N 32 52 29.82 1010 10 16 0.00 0.03
11:53 am 11:53 Cloudy 33 0.6 24 -4.4 70 70 N 41 67 29.87 1012 10 16 0.00 0.03
12:53 pm 12:53 Cloudy 35 1.7 24 -4.4 64 64 N 32 52 29.93 1013 10 16 0.00 0.00
1:38 pm 13:38 Mostly Cloudy 36 2.2 24 -4.4 62 62 N 37 59 29.99 1016 10 16 0.00 0.00
1:53 pm 13:53 Mostly Cloudy 36 2.2 24 -4.4 62 62 N 37 59 29.97 1015 10 16 0.00 0.00
2:53 pm 14:53 Mostly Sunny 37 2.8 22 -5.6 54 54 N 38 61 30.02 1017 10 16 0.00 0.00
3:53 pm 15:53 Partly Cloudy 38 3.3 23 -5 55 55 N 38 61 30.06 1018 10 16 0.00 0.00
4:53 pm 16:53 Mostly Sunny 38 3.3 21 -6.1 51 51 N 36 57 30.11 1020 10 16 0.00 0.00
5:53 pm 17:53 Partly Cloudy 38 3.3 21 -6.1 51 51 N 30 48 30.15 1021 10 16 0.00 0.00
6:53 pm 18:53 Sunny 35 1.7 20 -6.7 54 54 N 24 39 30.19 1022 10 16 0.00 0.00
7:53 pm 19:53 Clear 34 1.1 20 -6.7 56 56 N 25 41 30.22 1023 10 16 0.00 0.00
8:53 pm 20:53 Clear 32 0 20 -6.7 61 61 NNW 17 28 30.26 1025 10 16 0.00 0.00
9:53 pm 21:53 Clear 31 -0.6 20 -6.7 64 64 NNW 17 28 30.28 1025 10 16 0.00 0.00
10:53 pm 22:53 Clear 30 -1.1 19 -7.2 64 64 NNW 17 28 30.30 1026 10 16 0.00 0.00
11:53 pm 23:53 Clear 28 -2.2 19 -7.2 69 69 NNW 13 20 30.32 1027 10 16 0.00 0.00

Powered by AerisWeather